Time,TemperatureF,DewpointF,PressureIn,WindDirection,WindDirectionDegrees,WindSpeedMPH,WindSpeedGustMPH,Humidity,HourlyPrecipIn,Conditions,Clouds,dailyrainin,SoftwareType,DateUTC
2013-05-13 00:00:00,37.9,4.4,30.15,WSW,247,0.0,0.0,24,0.00,,SKC,0.00,VWS V14.01,2013-05-13 04:00:00,
2013-05-13 00:20:00,37.2,3.8,30.15,WSW,247,0.0,0.0,24,0.00,,SKC,0.00,VWS V14.01,2013-05-13 04:20:00,
2013-05-13 00:40:00,36.3,5.6,30.15,WSW,247,0.0,0.0,27,0.00,,SKC,0.00,VWS V14.01,2013-05-13 04:40:00,
2013-05-13 01:00:00,36.0,5.2,30.15,WSW,247,0.0,0.0,27,0.00,,SKC,0.00,VWS V14.01,2013-05-13 05:00:00,
2013-05-13 01:20:00,36.5,8.0,30.15,NW,318,0.0,0.0,30,0.00,,SKC,0.00,VWS V14.01,2013-05-13 05:20:00,
2013-05-13 01:40:00,38.3,6.4,30.15,WNW,294,0.0,3.1,26,0.00,,SKC,0.00,VWS V14.01,2013-05-13 05:40:00,
2013-05-13 02:00:00,38.7,5.0,30.15,SW,214,0.0,0.0,24,0.00,,SKC,0.00,VWS V14.01,2013-05-13 06:00:00,
2013-05-13 02:20:00,37.6,4.1,30.15,SW,214,0.0,0.0,24,0.00,,SKC,0.00,VWS V14.01,2013-05-13 06:20:00,
2013-05-13 02:40:00,36.9,6.0,30.15,WNW,298,0.0,3.6,27,0.00,,SKC,0.00,VWS V14.01,2013-05-13 06:40:00,
2013-05-13 03:00:00,39.2,4.5,30.12,West,263,4.0,6.3,23,0.00,,SKC,0.00,VWS V14.01,2013-05-13 07:00:00,
2013-05-13 03:20:00,40.3,3.5,30.12,SW,233,3.6,6.3,21,0.00,,SKC,0.00,VWS V14.01,2013-05-13 07:20:00,
2013-05-13 03:40:00,40.3,3.5,30.15,West,265,3.6,13.2,21,0.00,,SKC,0.00,VWS V14.01,2013-05-13 07:40:00,
2013-05-13 04:00:00,39.9,3.2,30.15,WSW,256,3.1,4.9,21,0.00,,SKC,0.00,VWS V14.01,2013-05-13 08:00:00,
2013-05-13 04:20:00,39.4,2.7,30.15,WNW,285,0.0,8.3,21,0.00,,SKC,0.00,VWS V14.01,2013-05-13 08:20:00,
2013-05-13 04:40:00,38.3,1.8,30.15,WSW,249,0.0,4.0,21,0.00,,SKC,0.00,VWS V14.01,2013-05-13 08:40:00,
2013-05-13 05:00:00,36.9,1.6,30.15,WSW,249,0.0,0.0,22,0.00,,SKC,0.00,VWS V14.01,2013-05-13 09:00:00,
2013-05-13 05:20:00,35.2,3.0,30.15,WSW,249,0.0,0.0,25,0.00,,SKC,0.00,VWS V14.01,2013-05-13 09:20:00,
2013-05-13 05:40:00,34.2,2.0,30.15,WSW,249,0.0,0.0,25,0.00,,SKC,0.00,VWS V14.01,2013-05-13 09:40:00,
2013-05-13 06:00:00,33.3,3.7,30.15,WSW,249,0.0,0.0,28,0.00,,SKC,0.00,VWS V14.01,2013-05-13 10:00:00,
2013-05-13 06:20:00,32.5,4.6,30.18,WSW,249,0.0,0.0,30,0.00,,SKC,0.00,VWS V14.01,2013-05-13 10:20:00,
2013-05-13 06:40:00,32.2,5.0,30.18,WSW,249,0.0,0.0,31,0.00,,SKC,0.00,VWS V14.01,2013-05-13 10:40:00,
2013-05-13 07:00:00,32.4,5.1,30.18,WSW,249,0.0,0.0,31,0.00,,SKC,0.00,VWS V14.01,2013-05-13 11:00:00,
2013-05-13 07:20:00,33.1,7.1,30.18,WSW,249,0.0,0.0,33,0.00,,SKC,0.00,VWS V14.01,2013-05-13 11:20:00,
2013-05-13 07:40:00,34.0,7.9,30.18,WSW,249,0.0,0.0,33,0.00,,SKC,0.00,VWS V14.01,2013-05-13 11:40:00,
2013-05-13 08:00:00,38.5,13.9,30.18,WSW,249,0.0,0.0,36,0.00,,SKC,0.00,VWS V14.01,2013-05-13 12:00:00,
2013-05-13 08:20:00,41.9,14.2,30.21,WSW,249,0.0,0.0,32,0.00,,SKC,0.00,VWS V14.01,2013-05-13 12:20:00,
2013-05-13 08:40:00,43.3,8.0,30.21,WNW,286,5.4,5.8,23,0.00,,SKC,0.00,VWS V14.01,2013-05-13 12:40:00,
2013-05-13 09:00:00,45.5,6.8,30.21,WNW,289,0.0,5.4,20,0.00,,SKC,0.00,VWS V14.01,2013-05-13 13:00:00,
2013-05-13 09:20:00,46.9,6.8,30.21,West,272,7.6,7.6,19,0.00,,SKC,0.00,VWS V14.01,2013-05-13 13:20:00,
2013-05-13 09:40:00,49.1,8.6,30.21,NW,313,6.7,8.7,19,0.00,,SKC,0.00,VWS V14.01,2013-05-13 13:40:00,
2013-05-13 10:00:00,49.5,8.9,30.21,West,266,2.7,11.0,19,0.00,,SKC,0.00,VWS V14.01,2013-05-13 14:00:00,
2013-05-13 10:20:00,50.9,10.1,30.21,West,264,7.6,12.8,19,0.00,,SKC,0.00,VWS V14.01,2013-05-13 14:20:00,
2013-05-13 10:40:00,51.6,10.7,30.21,West,263,3.6,8.3,19,0.00,,SKC,0.00,VWS V14.01,2013-05-13 14:40:00,
2013-05-13 11:00:00,52.0,9.8,30.24,NNW,344,6.3,11.0,18,0.00,,SKC,0.00,VWS V14.01,2013-05-13 15:00:00,
2013-05-13 11:20:00,52.9,10.6,30.21,NW,309,10.1,15.0,18,0.00,,SKC,0.00,VWS V14.01,2013-05-13 15:20:00,
2013-05-13 11:40:00,53.8,11.3,30.21,West,275,5.8,10.1,18,0.00,,SKC,0.00,VWS V14.01,2013-05-13 15:40:00,
2013-05-13 12:00:00,54.0,11.4,30.21,WNW,301,4.9,10.5,18,0.00,,SKC,0.00,VWS V14.01,2013-05-13 16:00:00,
2013-05-13 12:20:00,53.1,10.7,30.21,West,279,8.3,10.5,18,0.00,,SKC,0.00,VWS V14.01,2013-05-13 16:20:00,
2013-05-13 12:40:00,55.2,12.5,30.21,WNW,289,5.8,11.9,18,0.00,,SKC,0.00,VWS V14.01,2013-05-13 16:40:00,
2013-05-13 13:00:00,54.5,11.9,30.21,NW,323,4.0,12.8,18,0.00,,SKC,0.00,VWS V14.01,2013-05-13 17:00:00,
2013-05-13 13:20:00,55.4,11.3,30.21,WNW,291,9.6,12.3,17,0.00,,SKC,0.00,VWS V14.01,2013-05-13 17:20:00,
2013-05-13 13:40:00,56.3,12.1,30.21,WNW,297,4.0,11.0,17,0.00,,SKC,0.00,VWS V14.01,2013-05-13 17:40:00,
2013-05-13 14:00:00,55.2,12.5,30.21,WNW,300,6.3,10.5,18,0.00,,SKC,0.00,VWS V14.01,2013-05-13 18:00:00,
2013-05-13 14:20:00,55.8,11.6,30.18,West,281,5.4,11.9,17,0.00,,SKC,0.00,VWS V14.01,2013-05-13 18:20:00,
2013-05-13 14:40:00,55.0,12.3,30.18,WNW,296,3.1,8.7,18,0.00,,SKC,0.00,VWS V14.01,2013-05-13 18:40:00,
2013-05-13 15:00:00,55.9,11.8,30.18,WNW,283,5.8,10.5,17,0.00,,SKC,0.00,VWS V14.01,2013-05-13 19:00:00,
2013-05-13 15:20:00,55.9,11.8,30.18,North,0,8.3,14.5,17,0.00,,SKC,0.00,VWS V14.01,2013-05-13 19:20:00,
2013-05-13 15:40:00,58.3,13.7,30.18,WNW,284,5.8,15.4,17,0.00,,SKC,0.00,VWS V14.01,2013-05-13 19:40:00,
2013-05-13 16:00:00,57.2,12.8,30.18,West,259,4.5,9.6,17,0.00,,SKC,0.00,VWS V14.01,2013-05-13 20:00:00,
2013-05-13 16:20:00,53.4,11.0,30.18,West,264,3.6,15.0,18,0.00,,SKC,0.00,VWS V14.01,2013-05-13 20:20:00,
2013-05-13 16:40:00,55.6,11.5,30.18,WSW,258,6.3,14.1,17,0.00,,SKC,0.00,VWS V14.01,2013-05-13 20:40:00,
2013-05-13 17:00:00,54.9,12.2,30.18,WNW,287,8.1,13.2,18,0.00,,SKC,0.00,VWS V14.01,2013-05-13 21:00:00,
2013-05-13 17:20:00,55.6,11.5,30.18,WNW,300,12.3,12.3,17,0.00,,SKC,0.00,VWS V14.01,2013-05-13 21:20:00,
2013-05-13 17:40:00,55.6,11.5,30.18,WNW,297,13.2,18.3,17,0.00,,SKC,0.00,VWS V14.01,2013-05-13 21:40:00,
2013-05-13 18:00:00,53.2,10.9,30.18,West,270,5.8,15.4,18,0.00,,SKC,0.00,VWS V14.01,2013-05-13 22:00:00,
2013-05-13 18:20:00,52.3,10.1,30.18,WNW,283,5.4,10.5,18,0.00,,SKC,0.00,VWS V14.01,2013-05-13 22:20:00,
2013-05-13 18:40:00,52.7,10.4,30.18,West,266,15.0,17.0,18,0.00,,SKC,0.00,VWS V14.01,2013-05-13 22:40:00,
2013-05-13 19:00:00,52.3,10.1,30.15,WNW,296,4.0,15.0,18,0.00,,SKC,0.00,VWS V14.01,2013-05-13 23:00:00,
2013-05-13 19:20:00,51.3,10.4,30.18,SSW,194,0.0,8.7,19,0.00,,SKC,0.00,VWS V14.01,2013-05-13 23:20:00,
2013-05-13 19:40:00,50.5,9.8,30.18,WNW,295,6.3,15.4,19,0.00,,SKC,0.00,VWS V14.01,2013-05-13 23:40:00,
2013-05-13 20:00:00,50.2,9.5,30.18,WNW,295,5.8,8.7,19,0.00,,SKC,0.00,VWS V14.01,2013-05-14 00:00:00,
2013-05-13 20:20:00,48.9,8.5,30.18,WNW,284,0.0,10.1,19,0.00,,SKC,0.00,VWS V14.01,2013-05-14 00:20:00,
2013-05-13 20:40:00,47.5,7.3,30.18,WNW,283,0.0,5.8,19,0.00,,SKC,0.00,VWS V14.01,2013-05-14 00:40:00,
2013-05-13 21:00:00,45.7,6.9,30.21,WNW,288,0.0,5.4,20,0.00,,SKC,0.00,VWS V14.01,2013-05-14 01:00:00,
2013-05-13 21:20:00,43.9,5.4,30.21,West,268,0.0,0.0,20,0.00,,SKC,0.00,VWS V14.01,2013-05-14 01:20:00,
2013-05-13 21:40:00,42.3,5.1,30.21,West,268,0.0,0.0,21,0.00,,SKC,0.00,VWS V14.01,2013-05-14 01:40:00,
2013-05-13 22:00:00,41.5,4.5,30.24,West,268,0.0,0.0,21,0.00,,SKC,0.00,VWS V14.01,2013-05-14 02:00:00,
2013-05-13 22:20:00,40.6,3.8,30.24,West,268,0.0,0.0,21,0.00,,SKC,0.00,VWS V14.01,2013-05-14 02:20:00,
2013-05-13 22:40:00,39.6,2.9,30.24,West,268,0.0,0.0,21,0.00,,SKC,0.00,VWS V14.01,2013-05-14 02:40:00,
2013-05-13 23:00:00,38.5,2.0,30.24,West,268,0.0,0.0,21,0.00,,SKC,0.00,VWS V14.01,2013-05-14 03:00:00,
2013-05-13 23:20:00,37.4,1.0,30.27,West,268,0.0,0.0,21,0.00,,SKC,0.00,VWS V14.01,2013-05-14 03:20:00,
2013-05-13 23:40:00,36.7,1.4,30.27,West,268,0.0,0.0,22,0.00,,SKC,0.00,VWS V14.01,2013-05-14 03:40:00,